Simultaneous Nadir Overpasses (SNOs) Predictions

Prediction of SNOs between AQUA and NOAA-19 Satellite Orbit:

Table of predicted SNOs for the next 14.0 days since TLE Epoch: 11/17/2017
Index Date (AQUA) Time (AQUA) Lat,Lon (AQUA) SZA (AQUA ) Date (NOAA-19) Time (NOAA-19) Lat,Lon (NOAA-19) SZA (NOAA-19 ) Distance(km) Time Diff (sec)
1 11/18/2017 22:52:18 80.91, 156.88 102.00 11/18/2017 22:52:12 80.91, 156.94 102.00 1.05 6
2 11/21/2017 04:26:03 -80.91,-106.50 77.50 11/21/2017 04:25:50 -80.91,-106.44 77.49 1.25 13
3 11/23/2017 09:59:47 80.90, -9.83 102.98 11/23/2017 09:59:38 80.91, -9.74 102.99 2.25 9
4 11/25/2017 15:33:32 -80.90, 86.73 76.57 11/25/2017 15:33:16 -80.91, 86.80 76.56 1.87 16
5 11/27/2017 21:07:16 80.90,-176.71 103.86 11/27/2017 21:07:04 80.91,-176.57 103.87 2.74 12
6 11/27/2017 21:56:42 -80.87, -8.73 76.19 11/27/2017 21:57:44 -80.93, -3.49 76.61 92.34 62




NCC Satellite Simultaneous Nadir Overpasses (SNOs) Prediction Service
